KQ4NAL Weather Reports


time (UTC)temp
C
wind
direction
speed
KPH
gust
KPH
rain 1hr
cm
rain 24hr
cm
rain mn
cm
humidity
%
barometer
mb
20260507125003 8 2 1.6 3.2 0.00 0.00 0.00 70 1017.0
20260507124459 8 7 4.8 8.0 0.00 0.00 0.00 71 1017.1
20260507123957 8 14 4.8 8.0 0.00 0.00 0.00 75 1016.9
20260507123455 8 330 3.2 3.2 0.00 0.00 0.00 79 1017.4
20260507122951 7 312 3.2 4.8 0.00 0.00 0.00 84 1017.1
20260507122447 7 17 1.6 3.2 0.00 0.00 0.00 90 1017.1
20260507121943 7 336 3.2 4.8 0.00 0.00 0.00 94 1017.2
20260507121438 6 355 3.2 3.2 0.00 0.00 0.00 96 1017.2
20260507120935 6 355 8.0 8.0 0.00 0.00 0.00 97 1017.0
20260507120431 6 4 3.2 3.2 0.00 0.00 0.00 98 1017.1
20260507115928 6 0 1.6 3.2 0.00 0.00 0.00 99 1017.1
20260507115424 5 345 1.6 1.6 0.00 0.00 0.00 99 1016.9
20260507114920 5 17 4.8 8.0 0.00 0.00 0.00 99 1017.1
20260507114417 5 7 3.2 3.2 0.00 0.00 0.00 99 1016.9
20260507113914 5 8 0.0 0.0 0.00 0.00 0.00 99 1017.0
20260507113411 5 354 1.6 1.6 0.00 0.00 0.00 99 1017.1
20260507112908 4 357 0.0 1.6 0.00 0.00 0.00 99 1017.3
20260507112406 3 358 0.0 0.0 0.00 0.00 0.00 99 1017.0
20260507111904 3 357 0.0 1.6 0.00 0.00 0.00 99 1016.8
20260507111400 3 356 0.0 0.0 0.00 0.00 0.00 99 1016.8
20260507110856 3 353 0.0 0.0 0.00 0.00 0.00 99 1016.8
20260507110352 3 356 0.0 0.0 0.00 0.00 0.00 99 1016.4
20260507105849 3 356 0.0 0.0 0.00 0.00 0.00 99 1016.6
20260507105346 3 356 0.0 0.0 0.00 0.00 0.00 99 1016.7
20260507104843 3 359 0.0 0.0 0.00 0.00 0.00 99 1016.3
20260507104339 3 0 0.0 0.0 0.00 0.00 0.00 99 1016.3
20260507103835 3 356 0.0 0.0 0.00 0.00 0.00 99 1016.4
20260507103332 3 357 0.0 0.0 0.00 0.00 0.00 99 1016.2
20260507102828 3 359 0.0 0.0 0.00 0.00 0.00 99 1016.4
20260507102325 3 355 0.0 0.0 0.00 0.00 0.00 99 1016.3
20260507101821 3 359 0.0 0.0 0.00 0.00 0.00 99 1016.5
20260507101316 3 357 0.0 0.0 0.00 0.00 0.00 99 1016.5
20260507100813 3 358 0.0 0.0 0.00 0.00 0.00 99 1016.4
20260507100311 3 354 0.0 0.0 0.00 0.00 0.00 99 1016.5
20260507095809 3 359 0.0 0.0 0.00 0.00 0.00 99 1016.4
20260507095306 3 354 0.0 0.0 0.00 0.00 0.00 99 1016.3
20260507094802 3 357 0.0 0.0 0.00 0.00 0.00 99 1016.2
20260507094259 3 353 0.0 0.0 0.00 0.00 0.00 99 1016.5
20260507093756 3 358 0.0 0.0 0.00 0.00 0.00 99 1016.3
20260507093255 3 356 0.0 0.0 0.00 0.00 0.00 99 1016.2
20260507092752 3 354 0.0 0.0 0.00 0.00 0.00 99 1016.0
20260507092248 3 357 0.0 0.0 0.00 0.00 0.00 99 1016.1
20260507091745 3 354 0.0 0.0 0.00 0.00 0.00 99 1016.2
20260507091241 3 351 0.0 0.0 0.00 0.00 0.00 99 1016.1
20260507090736 3 355 0.0 0.0 0.00 0.00 0.00 99 1016.2
20260507090233 3 355 0.0 0.0 0.00 0.00 0.00 99 1016.0
20260507085731 3 359 0.0 0.0 0.00 0.00 0.00 99 1016.3
20260507085227 3 355 0.0 0.0 0.00 0.00 0.00 99 1016.0
20260507084725 3 355 0.0 0.0 0.00 0.00 0.00 99 1015.8
20260507084221 3 355 0.0 0.0 0.00 0.00 0.00 99 1015.8
20260507083719 3 355 0.0 0.0 0.00 0.00 0.00 99 1015.9
20260507083215 3 355 0.0 0.0 0.00 0.00 0.00 99 1015.9
20260507082711 3 355 0.0 0.0 0.00 0.00 0.00 99 1015.8
20260507082207 3 355 0.0 0.0 0.00 0.00 0.00 99 1015.9
20260507081704 3 355 0.0 0.0 0.00 0.00 0.00 99 1015.7
20260507081200 3 355 0.0 0.0 0.00 0.00 0.00 99 1015.9
20260507080657 3 355 0.0 0.0 0.00 0.00 0.00 99 1015.8
20260507080153 2 355 0.0 0.0 0.00 0.00 0.00 99 1015.8
20260507075648 3 355 0.0 0.0 0.00 0.00 0.00 99 1015.7
20260507075145 3 355 0.0 0.0 0.00 0.00 0.00 99 1015.8
20260507074641 3 355 0.0 0.0 0.00 0.00 0.00 99 1015.8
20260507074140 4 355 0.0 0.0 0.00 0.00 0.00 99 1015.7
20260507073636 4 355 0.0 0.0 0.00 0.00 0.00 99 1015.6
20260507073132 3 355 0.0 0.0 0.00 0.00 0.00 99 1015.6
20260507072630 4 355 0.0 0.0 0.00 0.00 0.00 99 1015.8
20260507072127 4 356 0.0 0.0 0.00 0.00 0.00 99 1015.7
20260507071625 4 355 0.0 0.0 0.00 0.00 0.00 99 1015.8
20260507071121 3 355 0.0 0.0 0.00 0.00 0.00 99 1015.8
20260507070618 3 355 0.0 0.0 0.00 0.00 0.00 98 1015.8
20260507070115 3 355 0.0 0.0 0.00 0.00 0.00 98 1015.8
20260507065611 3 355 0.0 0.0 0.00 0.00 0.00 98 1016.0
20260507065108 3 355 0.0 0.0 0.00 0.00 0.00 99 1015.8
20260507064606 3 355 0.0 0.0 0.00 0.00 0.00 98 1015.8
20260507064104 4 355 0.0 0.0 0.00 0.00 0.00 99 1015.8
20260507063601 3 355 0.0 0.0 0.00 0.00 0.00 98 1015.8
20260507063059 3 355 0.0 0.0 0.00 0.00 0.00 98 1016.0
20260507062555 4 355 0.0 0.0 0.00 0.00 0.00 98 1016.0
20260507062053 4 355 0.0 0.0 0.00 0.00 0.00 98 1016.0
20260507061550 5 354 0.0 0.0 0.00 0.00 0.00 98 1015.9
20260507061048 5 1 0.0 0.0 0.00 0.00 0.00 98 1015.9
20260507060546 5 358 0.0 0.0 0.00 0.00 0.00 98 1015.6
20260507060042 5 358 0.0 0.0 0.00 0.00 0.00 98 1016.0
20260507055542 5 356 0.0 0.0 0.00 0.00 0.00 98 1015.9
20260507055039 5 355 0.0 0.0 0.00 0.00 0.00 98 1015.6
20260507054535 4 357 0.0 0.0 0.00 0.00 0.00 98 1015.9
20260507054032 5 357 0.0 0.0 0.00 0.00 0.00 97 1016.0
20260507053530 5 359 0.0 0.0 0.00 0.00 0.00 97 1016.0
20260507053029 5 355 0.0 0.0 0.00 0.00 0.00 98 1016.1
20260507052526 5 355 0.0 0.0 0.00 0.00 0.00 97 1016.0
20260507052022 5 355 0.0 0.0 0.00 0.00 0.00 97 1015.9
20260507051520 5 355 0.0 0.0 0.00 0.00 0.00 97 1016.0
20260507051017 5 355 0.0 0.0 0.00 0.00 0.00 97 1015.7
20260507050513 5 355 0.0 0.0 0.00 0.00 0.00 97 1015.9
20260507050010 5 354 0.0 0.0 0.00 0.00 0.00 97 1015.9
20260507045507 5 354 0.0 0.0 0.00 0.00 0.00 97 1016.3
20260507045004 5 357 0.0 0.0 0.00 0.00 0.00 96 1016.1
20260507044501 5 357 0.0 0.0 0.00 0.00 0.00 96 1016.2
20260507043957 5 359 0.0 0.0 0.00 0.00 0.00 96 1016.2
20260507043453 5 359 0.0 0.0 0.00 0.00 0.00 96 1016.2
20260507042949 5 0 0.0 0.0 0.00 0.00 0.00 96 1016.2
20260507042446 5 354 0.0 0.0 0.00 0.00 0.00 95 1016.3
20260507041942 6 354 0.0 0.0 0.00 0.00 0.00 95 1016.1
20260507041439 5 354 0.0 0.0 0.00 0.00 0.00 95 1016.2
20260507040936 5 354 0.0 0.0 0.00 0.00 0.00 95 1016.1
20260507040432 5 354 0.0 0.0 0.00 0.00 0.00 95 1016.2
20260507035928 6 354 0.0 0.0 0.00 1.50 1.50 95 1015.9
20260507035425 6 353 0.0 0.0 0.00 1.50 1.50 95 1016.1
20260507034921 6 355 0.0 0.0 0.00 1.50 1.50 94 1015.7
20260507034418 6 355 0.0 0.0 0.00 1.50 1.50 94 1015.9
20260507033916 6 354 0.0 0.0 0.00 1.50 1.50 94 1016.2
20260507033414 6 354 0.0 0.0 0.00 1.50 1.50 94 1015.8
20260507032911 6 355 0.0 0.0 0.00 1.50 1.50 94 1016.0
20260507032408 6 355 0.0 0.0 0.00 1.50 1.50 93 1015.9
20260507031904 6 355 0.0 0.0 0.00 1.50 1.50 93 1016.2
20260507031400 6 355 0.0 0.0 0.00 1.50 1.50 93 1016.0
20260507030857 6 355 0.0 0.0 0.00 1.50 1.50 92 1016.0
20260507030354 6 355 0.0 0.0 0.00 1.50 1.50 92 1015.9
20260507025851 6 355 0.0 0.0 0.00 1.50 1.50 92 1016.1
20260507025349 7 355 0.0 0.0 0.00 1.50 1.50 91 1016.1
20260507024846 7 355 0.0 0.0 0.00 1.50 1.50 91 1015.9
20260507024343 7 354 0.0 0.0 0.00 1.50 1.50 90 1015.8
20260507023839 7 355 0.0 0.0 0.00 1.50 1.50 90 1015.9
20260507023336 7 355 0.0 0.0 0.00 1.50 1.50 90 1015.8
20260507022834 7 355 0.0 0.0 0.00 1.50 1.50 89 1015.8
20260507022330 8 355 0.0 0.0 0.00 1.50 1.50 88 1015.9
20260507021826 8 355 0.0 0.0 0.00 1.50 1.50 88 1015.7
20260507021321 8 354 0.0 0.0 0.00 1.50 1.50 87 1015.7
20260507020820 8 355 0.0 0.0 0.00 1.50 1.50 87 1015.7
20260507020316 8 355 0.0 0.0 0.00 1.50 1.50 86 1015.7
20260507015813 9 355 0.0 0.0 0.00 1.50 1.50 85 1015.6
20260507015311 9 355 0.0 0.0 0.00 1.50 1.50 85 1015.6
20260507014808 10 357 0.0 0.0 0.00 1.50 1.50 84 1015.4
20260507014304 10 355 0.0 0.0 0.00 1.50 1.50 83 1015.5
20260507013800 10 357 0.0 0.0 0.00 1.50 1.50 82 1015.6
20260507013258 10 357 0.0 0.0 0.00 1.50 1.50 82 1015.5
20260507012755 10 358 0.0 0.0 0.00 1.50 1.50 79 1015.4
20260507012250 10 358 0.0 0.0 0.00 1.50 1.50 78 1015.5
20260507011748 10 358 0.0 0.0 0.00 1.50 1.50 77 1015.3
20260507011245 10 357 0.0 0.0 0.00 1.50 1.50 76 1015.4
20260507010744 11 357 1.6 1.6 0.00 1.50 1.50 75 1015.1
20260507010240 11 359 0.0 0.0 0.00 1.50 1.50 73 1015.2
20260507005738 11 356 0.0 0.0 0.00 1.50 1.50 69 1015.3
20260507005234 12 352 0.0 1.6 0.00 1.50 1.50 67 1015.0
20260507004731 12 340 0.0 1.6 0.00 1.50 1.50 66 1015.0
20260507004229 12 350 3.2 4.8 0.00 1.50 1.50 65 1015.1
20260507003725 12 347 3.2 3.2 0.00 1.50 1.50 64 1015.0
20260507003220 12 319 6.4 9.7 0.00 1.50 1.50 63 1015.3
20260507002716 13 15 1.6 1.6 0.00 1.50 1.50 64 1015.0
20260507002213 13 355 0.0 0.0 0.00 1.50 1.50 64 1014.9
20260507001709 13 354 1.6 1.6 0.00 1.50 1.50 61 1014.7
20260507001207 13 344 0.0 1.6 0.00 1.50 1.50 61 1015.0
20260507000703 13 5 1.6 3.2 0.00 1.50 1.50 61 1014.7
20260507000159 13 19 1.6 3.2 0.00 1.50 1.50 61 1014.8
20260506235656 13 349 0.0 1.6 0.00 1.50 1.50 60 1014.8
20260506235151 13 343 4.8 4.8 0.00 1.50 1.50 58 1014.8
20260506234648 13 357 1.6 1.6 0.00 1.50 1.50 58 1014.7
20260506234145 14 0 1.6 3.2 0.00 1.50 1.50 58 1014.6
20260506233642 14 338 4.8 8.0 0.00 1.50 1.50 56 1014.2
20260506233139 14 359 4.8 4.8 0.00 1.50 1.50 57 1014.1
20260506232636 14 336 1.6 3.2 0.00 1.50 1.50 58 1014.2
20260506232131 14 348 4.8 4.8 0.00 1.50 1.50 57 1014.2
20260506231628 14 334 3.2 3.2 0.00 1.50 1.50 56 1014.2
20260506231127 14 13 4.8 8.0 0.00 1.50 1.50 56 1014.1
20260506230623 14 320 4.8 4.8 0.00 1.50 1.50 56 1014.2
20260506230120 14 2 3.2 3.2 0.00 1.50 1.50 56 1013.9
20260506225617 14 325 3.2 4.8 0.00 1.50 1.50 56 1013.8
20260506225113 14 328 4.8 4.8 0.00 1.50 1.50 56 1013.9
20260506224610 14 334 6.4 8.0 0.00 1.50 1.50 55 1013.8
20260506224107 14 312 4.8 4.8 0.00 1.50 1.50 54 1013.9
20260506223603 14 0 4.8 4.8 0.00 1.50 1.50 56 1014.1
20260506223059 14 289 4.8 8.0 0.00 1.50 1.50 55 1014.2
20260506222556 15 345 3.2 3.2 0.00 1.50 1.50 55 1014.3
20260506222052 15 334 4.8 4.8 0.00 1.50 1.50 56 1014.3
20260506221550 15 6 3.2 3.2 0.00 1.50 1.50 55 1014.2
20260506221048 15 15 3.2 4.8 0.00 1.50 1.50 54 1014.3
20260506220544 15 333 6.4 8.0 0.00 1.50 1.50 55 1014.4
20260506220039 15 354 0.0 1.6 0.00 1.50 1.50 54 1014.4
20260506215536 15 308 3.2 3.2 0.00 1.50 1.50 56 1014.7
20260506215032 15 323 1.6 1.6 0.00 1.50 1.50 56 1014.5
20260506214529 15 346 4.8 4.8 0.00 1.50 1.50 54 1014.5
20260506214026 15 338 8.0 11.3 0.00 1.50 1.50 55 1014.3
20260506213525 15 319 9.7 11.3 0.00 1.50 1.50 53 1014.3
20260506213021 15 359 3.2 3.2 0.00 1.50 1.50 55 1014.4
20260506212518 15 359 1.6 3.2 0.00 1.50 1.50 55 1014.4
20260506212013 15 344 8.0 9.7 0.00 1.50 1.50 55 1014.3
20260506211509 15 4 4.8 8.0 0.00 1.50 1.50 56 1014.1
20260506211006 15 319 4.8 4.8 0.00 1.50 1.50 57 1014.0
20260506210502 15 8 9.7 12.9 0.00 1.50 1.50 56 1014.1
20260506205959 15 336 4.8 4.8 0.00 1.50 1.50 55 1013.9
20260506205456 15 357 3.2 3.2 0.00 1.50 1.50 56 1013.9
20260506204952 15 358 8.0 9.7 0.00 1.50 1.50 54 1013.9
20260506204450 15 346 3.2 3.2 0.00 1.50 1.50 55 1013.8
20260506203947 15 334 3.2 4.8 0.00 1.50 1.50 52 1013.8
20260506203444 16 349 1.6 1.6 0.00 1.50 1.50 53 1013.9
20260506202941 16 6 3.2 4.8 0.00 1.50 1.50 50 1013.8
20260506202438 16 0 0.0 1.6 0.00 1.50 1.50 53 1013.9
20260506201934 16 341 4.8 8.0 0.00 1.50 1.50 51 1014.1
20260506201432 16 4 3.2 4.8 0.00 1.50 1.50 52 1013.9
20260506200928 16 13 3.2 4.8 0.00 1.50 1.50 51 1013.8
20260506200425 16 3 4.8 4.8 0.00 1.50 1.50 50 1014.0
20260506195921 16 7 3.2 3.2 0.00 1.50 1.50 52 1013.9
20260506195419 17 6 4.8 4.8 0.00 1.50 1.50 50 1014.0
20260506194915 16 358 3.2 4.8 0.00 1.50 1.50 48 1014.1
20260506194412 16 11 3.2 3.2 0.00 1.50 1.50 51 1014.2
20260506193909 16 348 3.2 3.2 0.00 1.50 1.50 51 1014.0
20260506193406 16 9 6.4 8.0 0.00 1.50 1.50 49 1014.3
20260506192902 17 10 11.3 16.1 0.00 1.50 1.50 51 1014.0
20260506192359 18 246 4.8 4.8 0.00 1.50 1.50 49 1013.7
20260506191856 17 348 1.6 1.6 0.00 1.50 1.50 49 1013.7
20260506191352 16 8 1.6 1.6 0.00 1.50 1.50 53 1013.8
20260506190850 17 334 4.8 4.8 0.00 1.50 1.50 47 1013.9
20260506190346 16 346 3.2 4.8 0.00 1.50 1.50 51 1013.8
20260506185843 16 16 3.2 8.0 0.00 1.50 1.50 55 1014.1
20260506185340 16 353 1.6 3.2 0.00 1.50 1.50 54 1013.9
20260506184837 15 7 11.3 14.5 0.00 1.50 1.50 52 1013.7
20260506184334 16 338 8.0 8.0 0.00 1.50 1.50 54 1013.8
20260506183832 16 319 3.2 4.8 0.00 1.50 1.50 54 1013.8
20260506183326 15 10 8.0 11.3 0.00 1.50 1.50 55 1013.4
20260506182824 16 13 6.4 8.0 0.00 1.50 1.50 57 1013.6
20260506182321 16 351 9.7 12.9 0.00 1.50 1.50 53 1013.6
20260506181819 15 12 1.6 1.6 0.00 1.50 1.50 54 1013.6
20260506181316 16 356 8.0 11.3 0.00 1.50 1.50 55 1013.8
20260506180814 16 308 3.2 3.2 0.00 1.50 1.50 57 1013.6
20260506180309 15 2 3.2 4.8 0.00 1.50 1.50 58 1013.9
20260506175806 15 327 3.2 4.8 0.00 1.50 1.50 56 1013.9
20260506175306 15 354 6.4 8.0 0.00 1.50 1.50 55 1014.1
20260506174800 15 6 4.8 4.8 0.00 1.50 1.50 57 1013.9
20260506174257 15 9 3.2 3.2 0.00 1.50 1.50 55 1013.8
20260506173755 15 353 4.8 8.0 0.00 1.50 1.50 55 1014.1
20260506173251 14 354 9.7 12.9 0.00 1.50 1.50 59 1014.3
20260506172748 15 258 4.8 4.8 0.00 1.50 1.50 58 1014.5
20260506172245 15 328 1.6 3.2 0.00 1.50 1.50 59 1014.1
20260506171743 14 28 3.2 3.2 0.00 1.50 1.50 60 1014.2
20260506171239 14 357 8.0 11.3 0.00 1.50 1.50 58 1014.3
20260506170737 13 317 4.8 4.8 0.00 1.50 1.50 60 1014.5
20260506170233 13 342 4.8 4.8 0.00 1.50 1.50 61 1014.4
20260506165732 14 331 6.4 8.0 0.00 1.50 1.50 60 1014.6
20260506165229 13 341 8.0 11.3 0.00 1.50 1.50 62 1014.5
20260506164726 13 7 4.8 8.0 0.00 1.50 1.50 63 1014.5
20260506164223 13 10 9.7 11.3 0.00 1.50 1.50 63 1014.2
20260506163719 13 341 4.8 8.0 0.00 1.50 1.50 65 1014.5
20260506163214 13 286 8.0 12.9 0.00 1.50 1.50 64 1014.6
20260506162711 13 327 8.0 9.7 0.00 1.50 1.50 65 1014.7
20260506162208 13 351 8.0 11.3 0.00 1.50 1.50 65 1014.5
20260506161705 13 323 8.0 11.3 0.00 1.50 1.50 64 1014.3
20260506161202 12 348 1.6 3.2 0.00 1.50 1.50 68 1014.4
20260506160700 13 10 14.5 17.7 0.00 1.50 1.50 66 1014.3
20260506160156 13 322 9.7 11.3 0.00 1.50 1.50 66 1014.5
20260506155655 13 313 4.8 8.0 0.00 1.50 1.50 67 1014.4
20260506155152 12 353 6.4 9.7 0.00 1.50 1.50 69 1014.2
20260506153254 12 331 12.9 16.1 0.00 1.50 1.50 70 1014.2
20260506152750 12 329 14.5 17.7 0.00 1.50 1.50 70 1014.2
20260506152248 12 3 8.0 9.7 0.00 1.50 1.50 71 1014.2
20260506151747 12 318 11.3 14.5 0.00 1.50 1.50 69 1014.2
20260506151243 12 310 9.7 12.9 0.00 1.50 1.50 71 1013.8
20260506150740 12 10 8.0 11.3 0.00 1.50 1.50 73 1013.9
20260506150237 11 315 6.4 9.7 0.00 1.50 1.50 75 1013.8
20260506145734 11 85 3.2 8.0 0.00 1.50 1.50 75 1013.7
20260506145230 11 359 11.3 14.5 0.00 1.50 1.50 75 1013.7
20260506144728 11 17 8.0 9.7 0.00 1.50 1.50 76 1013.9
20260506144224 11 338 1.6 1.6 0.00 1.50 1.50 79 1013.5
20260506143722 11 325 8.0 9.7 0.00 1.50 1.50 79 1013.4
20260506143219 11 10 3.2 4.8 0.00 1.50 1.50 80 1013.5
20260506142718 11 334 3.2 3.2 0.00 1.50 1.50 80 1013.5
20260506142216 11 4 17.7 20.9 0.00 1.50 1.50 80 1013.4
20260506141713 11 9 8.0 11.3 0.00 1.50 1.50 81 1013.2
20260506141211 10 16 6.4 8.0 0.00 1.50 1.50 82 1013.0
20260506140709 10 352 9.7 12.9 0.00 1.50 1.50 83 1013.1
20260506140206 10 350 4.8 4.8 0.00 1.50 1.50 85 1013.1
20260506135702 10 353 11.3 14.5 0.00 1.50 1.50 87 1012.6
20260506135159 10 15 8.0 9.7 0.00 1.50 1.50 90 1012.8
20260506134655 9 309 6.4 8.0 0.00 1.50 1.50 91 1013.1
20260506134151 9 354 4.8 4.8 0.00 1.50 1.50 94 1013.1
20260506133649 8 336 6.4 9.7 0.00 1.50 1.50 95 1013.2
20260506133146 8 341 1.6 1.6 0.00 1.50 1.50 98 1013.5
20260506132643 8 4 3.2 3.2 0.00 1.50 1.50 98 1013.2
20260506132139 8 15 8.0 9.7 0.00 1.50 1.50 99 1013.2
20260506131637 7 349 0.0 0.0 0.00 1.50 1.50 99 1013.0
20260506131133 7 352 1.6 1.6 0.00 1.50 1.50 99 1012.7
20260506130630 7 324 6.4 8.0 0.00 1.50 1.50 99 1012.4
20260506130128 7 317 4.8 4.8 0.00 1.50 1.50 99 1012.3
20260506125626 7 335 3.2 3.2 0.00 1.50 1.50 99 1012.7